When you browse on this site, cookies collect data to enhance your experience and personalize the content and advertising you see.
Visit our Privacy Policy to learn more. By continuing to use the site, you agree to this use of cookies and data.
  • In Latvia
  • List of Countries
  • For 7 days
  • Water Temperature
  • Weather Map
  • Weather Widgets
  • user-avatar
    Login

    Hourly Weather Duabo

    Today, 18 February, Tuesday

    Time Temperature Precipitation Wind Pressure Humidity
    00:00 +25°C° 0 mm 1 mps 740 mmHg 92%
    01:00 +25°C° 0 mm 1 mps 740 mmHg 94%
    02:00 +22°C° 0 mm 0 mps 740 mmHg 97%
    03:00 +22°C° 0 mm 0 mps 740 mmHg 98%
    04:00 +22°C° 0 mm 0 mps 740 mmHg 98%
    05:00 +22°C° 0 mm 0 mps 740 mmHg 98%
    06:00 +24°C° 0 mm 0 mps 740 mmHg 89%
    07:00 +28°C° 0 mm 1 mps 741 mmHg 80%
    08:00 +30°C° 0 mm 1 mps 741 mmHg 70%
    09:00 +33°C° 0 mm 1 mps 741 mmHg 58%
    10:00 +34°C° 0 mm 0 mps 740 mmHg 46%
    11:00 +38°C° 0 mm 0 mps 740 mmHg 34%
    12:00 +38°C° 0 mm 0 mps 739 mmHg 32%
    13:00 +40°C° 0 mm 1 mps 739 mmHg 29%
    14:00 +40°C° 0 mm 1 mps 738 mmHg 27%
    15:00 +38°C° 0 mm 2 mps 738 mmHg 36%
    16:00 +36°C° 0 mm 2 mps 737 mmHg 45%
    17:00 +34°C° 0 mm 3 mps 737 mmHg 54%
    18:00 +31°C° 0 mm 3 mps 738 mmHg 62%
    19:00 +29°C° 0 mm 3 mps 738 mmHg 71%
    20:00 +28°C° 0 mm 2 mps 739 mmHg 79%
    21:00 +27°C° 0 mm 2 mps 739 mmHg 83%
    22:00 +26°C° 0 mm 1 mps 739 mmHg 87%
    23:00 +26°C° 0 mm 1 mps 740 mmHg 91%

    Tomorrow, 19 February, Wednesday

    Time Temperature Precipitation Wind Pressure Humidity
    00:00 +25°C° 0 mm 1 mps 739 mmHg 93%
    01:00 +23°C° 0 mm 0 mps 739 mmHg 95%
    02:00 +23°C° 0 mm 0 mps 739 mmHg 97%
    03:00 +23°C° 0 mm 0 mps 739 mmHg 96%
    04:00 +23°C° 0 mm 0 mps 739 mmHg 95%
    05:00 +23°C° 0 mm 0 mps 738 mmHg 93%
    06:00 +25°C° 0 mm 0 mps 739 mmHg 85%
    07:00 +28°C° 0 mm 1 mps 739 mmHg 78%
    08:00 +29°C° 0 mm 1 mps 740 mmHg 70%
    09:00 +32°C° 0 mm 1 mps 740 mmHg 62%
    10:00 +34°C° 0 mm 1 mps 739 mmHg 53%
    11:00 +36°C° 0 mm 1 mps 739 mmHg 45%
    12:00 +37°C° 0 mm 1 mps 738 mmHg 41%
    13:00 +39°C° 0 mm 1 mps 738 mmHg 37%
    14:00 +40°C° 0 mm 1 mps 737 mmHg 33%
    15:00 +39°C° 0 mm 1 mps 737 mmHg 37%
    16:00 +37°C° 0 mm 2 mps 737 mmHg 42%
    17:00 +36°C° 0 mm 2 mps 737 mmHg 46%
    18:00 +34°C° 0.1 mm 2 mps 737 mmHg 56%
    19:00 +30°C° 0.1 mm 2 mps 738 mmHg 67%
    20:00 +28°C° 0.1 mm 2 mps 738 mmHg 78%
    21:00 +27°C° 0.2 mm 2 mps 739 mmHg 82%
    22:00 +27°C° 0.2 mm 2 mps 739 mmHg 86%
    23:00 +26°C° 0.2 mm 2 mps 739 mmHg 90%

    Day after tomorrow, 20 February, Thursday

    Time Temperature Precipitation Wind Pressure Humidity
    00:00 +26°C° 0 mm 1 mps 739 mmHg 92%
    01:00 +25°C° 0 mm 1 mps 738 mmHg 94%
    02:00 +23°C° 0 mm 0 mps 738 mmHg 96%
    03:00 +23°C° 0 mm 0 mps 738 mmHg 96%
    04:00 +23°C° 0 mm 0 mps 738 mmHg 97%
    05:00 +23°C° 0 mm 0 mps 738 mmHg 98%
    06:00 +24°C° 0 mm 0 mps 738 mmHg 89%
    07:00 +26°C° 0 mm 0 mps 739 mmHg 81%
    08:00 +30°C° 0 mm 1 mps 739 mmHg 72%
    09:00 +32°C° 0 mm 1 mps 739 mmHg 64%
    10:00 +34°C° 0 mm 1 mps 739 mmHg 55%
    11:00 +36°C° 0 mm 1 mps 739 mmHg 46%
    12:00 +36°C° 0.1 mm 1 mps 738 mmHg 47%
    13:00 +35°C° 0.1 mm 1 mps 737 mmHg 47%
    14:00 +36°C° 0.1 mm 2 mps 737 mmHg 47%
    15:00 +35°C° 0.1 mm 2 mps 737 mmHg 52%
    16:00 +34°C° 0.1 mm 2 mps 737 mmHg 58%
    17:00 +33°C° 0.1 mm 3 mps 737 mmHg 63%
    18:00 +30°C° 0 mm 2 mps 737 mmHg 69%
    19:00 +29°C° 0 mm 2 mps 738 mmHg 76%
    20:00 +27°C° 0 mm 2 mps 738 mmHg 83%
    21:00 +27°C° 0 mm 2 mps 738 mmHg 85%
    22:00 +27°C° 0 mm 1 mps 739 mmHg 88%
    23:00 +26°C° 0 mm 1 mps 739 mmHg 91%

    21 February, Friday

    Time Temperature Precipitation Wind Pressure Humidity
    00:00 +26°C° 0 mm 1 mps 739 mmHg 93%
    01:00 +25°C° 0 mm 1 mps 738 mmHg 95%
    02:00 +23°C° 0 mm 0 mps 738 mmHg 97%
    03:00 +23°C° 0 mm 0 mps 738 mmHg 98%
    04:00 +23°C° 0 mm 0 mps 738 mmHg 98%
    05:00 +23°C° 0 mm 0 mps 738 mmHg 98%
    12:00 +33°C° 0.4 mm 1 mps 738 mmHg 57%
    13:00 +33°C° 0.4 mm 1 mps 737 mmHg 57%
    14:00 +35°C° 0.4 mm 2 mps 737 mmHg 58%
    15:00 +32°C° 1.2 mm 2 mps 737 mmHg 63%
    16:00 +31°C° 1.2 mm 2 mps 737 mmHg 69%
    17:00 +30°C° 1.2 mm 2 mps 737 mmHg 74%
    18:00 +29°C° 0.2 mm 2 mps 738 mmHg 80%
    19:00 +28°C° 0.2 mm 2 mps 738 mmHg 86%
    20:00 +26°C° 0.2 mm 1 mps 739 mmHg 92%
    21:00 +26°C° 0 mm 1 mps 739 mmHg 93%
    22:00 +26°C° 0 mm 1 mps 740 mmHg 94%
    23:00 +25°C° 0 mm 1 mps 740 mmHg 96%

    22 February, Saturday

    Time Temperature Precipitation Wind Pressure Humidity
    00:00 +25°C° 0 mm 1 mps 739 mmHg 96%
    01:00 +25°C° 0 mm 1 mps 739 mmHg 97%
    02:00 +25°C° 0 mm 1 mps 738 mmHg 98%
    03:00 +25°C° 0 mm 1 mps 738 mmHg 98%
    04:00 +25°C° 0 mm 1 mps 738 mmHg 98%
    05:00 +24°C° 0 mm 1 mps 739 mmHg 98%
    06:00 +26°C° 0 mm 1 mps 739 mmHg 91%
    07:00 +28°C° 0 mm 1 mps 740 mmHg 83%
    08:00 +29°C° 0 mm 1 mps 740 mmHg 76%
    09:00 +31°C° 0 mm 1 mps 740 mmHg 66%
    10:00 +34°C° 0 mm 1 mps 740 mmHg 57%
    11:00 +36°C° 0 mm 1 mps 740 mmHg 47%
    12:00 +36°C° 1.3 mm 2 mps 739 mmHg 52%
    13:00 +35°C° 1.3 mm 2 mps 738 mmHg 57%
    14:00 +34°C° 1.3 mm 2 mps 737 mmHg 62%
    15:00 +32°C° 1.5 mm 2 mps 737 mmHg 68%
    16:00 +30°C° 1.5 mm 2 mps 737 mmHg 73%
    17:00 +29°C° 1.5 mm 2 mps 737 mmHg 79%
    18:00 +28°C° 2.3 mm 2 mps 738 mmHg 84%
    19:00 +27°C° 2.3 mm 1 mps 739 mmHg 88%
    20:00 +26°C° 2.3 mm 1 mps 740 mmHg 93%
    21:00 +24°C° 0.4 mm 0 mps 740 mmHg 94%
    22:00 +24°C° 0.4 mm 0 mps 740 mmHg 96%
    23:00 +23°C° 0.4 mm 0 mps 741 mmHg 97%

    23 February, Sunday

    Time Temperature Precipitation Wind Pressure Humidity
    00:00 +23°C° 0.1 mm 0 mps 740 mmHg 97%
    01:00 +25°C° 0.1 mm 1 mps 739 mmHg 97%
    02:00 +25°C° 0.1 mm 1 mps 739 mmHg 97%
    03:00 +25°C° 0 mm 1 mps 739 mmHg 97%
    04:00 +25°C° 0 mm 1 mps 739 mmHg 97%
    05:00 +25°C° 0 mm 1 mps 739 mmHg 97%
    06:00 +26°C° 0 mm 1 mps 740 mmHg 93%
    07:00 +27°C° 0 mm 2 mps 740 mmHg 89%
    08:00 +28°C° 0 mm 2 mps 741 mmHg 85%
    09:00 +30°C° 0 mm 2 mps 741 mmHg 76%
    10:00 +32°C° 0 mm 2 mps 740 mmHg 67%
    11:00 +34°C° 0 mm 2 mps 740 mmHg 58%
    12:00 +34°C° 0.7 mm 2 mps 740 mmHg 61%
    13:00 +32°C° 0.7 mm 1 mps 739 mmHg 64%
    14:00 +32°C° 0.7 mm 1 mps 738 mmHg 67%
    15:00 +31°C° 1.8 mm 1 mps 738 mmHg 74%
    16:00 +30°C° 1.8 mm 1 mps 738 mmHg 80%
    17:00 +29°C° 1.8 mm 1 mps 738 mmHg 86%
    18:00 +28°C° 0.2 mm 1 mps 739 mmHg 89%
    19:00 +27°C° 0.2 mm 1 mps 740 mmHg 91%
    20:00 +26°C° 0.2 mm 1 mps 740 mmHg 94%
    21:00 +26°C° 0.1 mm 1 mps 740 mmHg 94%
    22:00 +26°C° 0.1 mm 1 mps 740 mmHg 94%
    23:00 +26°C° 0.1 mm 2 mps 740 mmHg 95%
    Show more